Home   Weather   Turin   Past weeks

Flag for Italy Past Weather in Turin, Italy — Yesterday and Last 2 Weeks

Now
41 °F

Clear.


Feels Like: 41 °F
Forecast: 35 / 45 °F
Wind: No wind

Location: Torino / Bric Della Croce

Current Time: Dec 4, 2016 at 9:41:08 pm

Latest Report: Dec 4, 2016 at 8:55 pm


Visibility: 4 mi

Pressure: 30.27 "Hg

Humidity: 100%

Dew Point: 41 °F

Location of TurinLocation

Past Weather in Turin — Graph

°F

Turin Temperature Yesterday

Maximum temperature yesterday: 41 °F (at 12:55 am)
Minimum temperature yesterday: 34 °F (at 3:55 am)
Average temperature yesterday: 39 °F

High & Low Weather Summary for the Past Weeks

 TemperatureHumidityPressure
High59 °F (Dec 1, 2:55 pm)100% (Nov 19, 7:55 pm)30.45 "Hg (Nov 19, 7:55 pm)
Low34 °F (Nov 29, 7:55 am)11% (Dec 1, 1:55 pm)29.83 "Hg (Nov 27, 2:55 pm)
Average45 °F83%30.05 "Hg
* Reported Nov 19 7:55 pm — Dec 4 7:55 pm, Turin, Weather by CustomWeather, © 2016

Note: Actual official high and low records may vary slightly from our data, if they occured in-between our weather recording intervals... More about our weather records

Advertising

Turin Weather History for the Previous 24 Hours

Scroll right to see more
 ConditionsComfort  
Time TempWeatherWind HumidityBarometerVisibility
7:55 pm
Sun, Dec 4
41 °FFog.2 mph100%30.27 "Hg1 mi
6:55 pm41 °FFog.2 mph100%30.24 "Hg1 mi
5:55 pm41 °FFog.2 mph100%30.24 "Hg1 mi
4:55 pm43 °FFog.No wind100%30.24 "Hg1 mi
3:55 pm43 °FFog.No wind100%30.24 "Hg1 mi
2:55 pm43 °FFog.No wind100%30.24 "Hg1 mi
1:55 pm43 °FFog.No wind100%30.24 "Hg1 mi
12:55 pm43 °FFog.No wind100%30.24 "Hg1 mi
11:55 am43 °FFog.No wind93%30.24 "Hg1 mi
10:55 am41 °FClear.No wind100%30.24 "Hg4 mi
9:55 am41 °FClear.No wind93%30.24 "Hg4 mi
8:55 am41 °FClear.No wind93%30.21 "Hg4 mi
7:55 am41 °FFog.No wind93%30.21 "Hg2 mi
6:55 am41 °FPassing clouds.No wind93%30.21 "Hg4 mi
5:55 am41 °FPassing clouds.No wind93%30.21 "Hg4 mi
4:55 am41 °FPassing clouds.No wind93%30.21 "Hg4 mi
3:55 am41 °FPassing clouds.No wind93%30.21 "Hg4 mi
2:55 am41 °FFog.No wind93%30.21 "Hg3 mi
1:55 am41 °FFog.No wind100%30.21 "Hg3 mi
12:55 am41 °FFog.No wind93%30.21 "Hg3 mi
11:55 pm
Sat, Dec 3
41 °FFog.No wind93%30.21 "Hg3 mi
10:55 pm41 °FFog.No wind93%30.18 "Hg3 mi
9:55 pm41 °FFog.No wind93%30.18 "Hg2 mi
Weather by CustomWeather, © 2016

See weather overviewHow to use our weather pages